STARLINK-5889 (55953 NORAD) Tracking and Keplerian Element Data

This shows tracking and keplerian element data for the satellite.

Feedback or suggestion? Click here.




ElementValue
Catalog55953
NameSTARLINK-5889
Epoch Orbit839
Epoch Day126.86710425
Epoch Year2023
RAAN40.2068
Inclination70.0001
Eccentricity0.0003592
Argument of Perigee267.154
Mean Anonmoly92.9244
Mean Motion15.69944966
Decay Rate2.258E-05
L11 55953U 23037AR 23126.86710425 .00002258 00000+0 20523-4 0 9991
L22 55953 70.0001 40.2068 0003592 267.1540 92.9244 15.69944966 8390



Live tracking and technical data element details for STARLINK-5889 (NORAD 55953). STARLINK-5889 can be tracked NOW for your location showing map with azimuth and elevation plus other details from your city location.







IsCatalogInMostPopularTable: catalog: 55953, numindb: 9
Update: records affected: 1



GetName: 55953 STARLINK-5889

Hit Count: updated at: Tue, 06 Jun 2023 02:20:31 GMT